Weather History for KPRN - March, 2013

Change the Weather History Date:

Thursday, March 7, 2013

  Actual Average Record
Temperature  
Mean Temperature 48 °F -  
Max Temperature 62 °F 68 °F 85 °F (1974)
Min Temperature 33 °F 41 °F 24 °F (1966)
Degree Days  
Heating Degree Days 18    
Moisture  
Dew Point 28 °F    
Average Humidity 52    
Maximum Humidity 78    
Minimum Humidity 24    
Precipitation  
Precipitation 0.00 in - - ()
Sea Level Pressure  
Sea Level Pressure 30.25 in    
Wind  
Wind Speed 5 mph (NNW)    
Max Wind Speed 8 mph    
Max Gust Speed -    
Visibility 10 miles    
Events      
Averages and records for this station are not official NWS values.
T = Trace of Precipitation, MM = Missing Value Source: NWS Daily Summary

Daily Weather History Graph

Daily Weather History Graph

Search for Another Location

Airport or City:

Trip Planner

Search our weather history database for the weather conditions in past years. The results will help you decide how hot, cold, wet, or windy it might be!

Date:

Astronomy

Mar. 07, 2013 Rise Set
Actual Time 6:06 AM CST 5:48 PM CST
Civil Twilight 5:41 AM CST 6:13 PM CST
Nautical Twilight 5:13 AM CST 6:41 PM CST
Astronomical Twilight 4:45 AM CST 7:09 PM CST
Moon 2:52 AM CST (3/7) 1:48 PM CST (3/7)
Length of Visible Light 12h 31m
Length of Day
11h 42m
Waning Crescent, 20% of the Moon is Illuminated
Mar 7
Waning Crescent
Mar 11
New
Mar 19
First Quarter
Mar 27
Full
Apr 2
Last Quarter

Hourly Weather History & Observations

Time (CST) Temp. Windchill Dew Point Humidity Pressure Visibility Wind Dir Wind Speed Gust Speed Precip Events Conditions
12:56 AM 36.0 °F 33.3 °F 27.0 °F 70% 30.26 in 10.0 mi NNW 3.5 mph - N/A   Clear
1:56 AM 36.0 °F 29.6 °F 27.0 °F 70% 30.25 in 10.0 mi NNW 8.1 mph - N/A   Clear
2:56 AM 35.1 °F 29.3 °F 27.0 °F 72% 30.23 in 10.0 mi North 6.9 mph - N/A   Clear
3:56 AM 34.0 °F 28.8 °F 27.0 °F 75% 30.24 in 10.0 mi North 5.8 mph - N/A   Clear
4:56 AM 33.1 °F 30.0 °F 27.0 °F 78% 30.24 in 10.0 mi North 3.5 mph - N/A   Clear
5:56 AM 34.0 °F 29.8 °F 27.0 °F 75% 30.27 in 10.0 mi North 4.6 mph - N/A   Clear
6:56 AM 35.1 °F 31.0 °F 28.0 °F 76% 30.29 in 10.0 mi North 4.6 mph - N/A   Clear
7:56 AM 39.0 °F 34.8 °F 28.0 °F 65% 30.30 in 10.0 mi NNE 5.8 mph - N/A   Clear
8:56 AM 43.0 °F 38.2 °F 27.0 °F 53% 30.31 in 10.0 mi NNE 8.1 mph - N/A   Clear
9:56 AM 46.9 °F - 25.0 °F 42% 30.31 in 10.0 mi Calm Calm - N/A   Clear
10:56 AM 53.1 °F - 21.9 °F 30% 30.30 in 10.0 mi Variable 4.6 mph - N/A   Clear
11:56 AM 55.9 °F - 25.0 °F 30% 30.27 in 10.0 mi Variable 6.9 mph - N/A   Clear
12:56 PM 57.9 °F - 24.1 °F 27% 30.25 in 10.0 mi WNW 5.8 mph - N/A   Clear
1:56 PM 62.1 °F - 28.0 °F 28% 30.22 in 10.0 mi West 5.8 mph - N/A   Clear
2:56 PM 62.1 °F - 25.0 °F 24% 30.22 in 10.0 mi Variable 4.6 mph - N/A   Clear
3:56 PM 62.1 °F - 26.1 °F 25% 30.22 in 10.0 mi West 5.8 mph - N/A   Clear
4:56 PM 61.0 °F - 26.1 °F 26% 30.22 in 10.0 mi WNW 3.5 mph - N/A   Clear
5:56 PM 57.0 °F - 27.0 °F 32% 30.23 in 10.0 mi NW 4.6 mph - N/A   Clear
6:56 PM 53.1 °F - 28.0 °F 38% 30.24 in 10.0 mi NNW 3.5 mph - N/A   Clear
7:56 PM 51.1 °F - 30.0 °F 44% 30.24 in 10.0 mi NW 4.6 mph - N/A   Clear
8:56 PM 46.0 °F 44.8 °F 32.0 °F 58% 30.24 in 10.0 mi NW 3.5 mph - N/A   Clear
9:56 PM 44.1 °F - 33.1 °F 65% 30.25 in 10.0 mi Calm Calm - N/A   Clear
10:56 PM 41.0 °F - 33.1 °F 73% 30.25 in 10.0 mi Calm Calm - N/A   Clear
11:56 PM 39.9 °F 36.7 °F 33.1 °F 77% 30.25 in 10.0 mi North 4.6 mph - N/A   Clear